THORAD AGENA D DEB, 4743

Orbit data source: Space-Track

THORAD AGENA D DEB, 4743 is space debris in SSO originally from a launch on Wed, 08 Apr 1970 UTC launched from the Air Force Western Test Range (AFWTR). Debris objects in space refer to the collection of defunct objects orbiting the Earth. Examples of debris include non-operational satellites, rocket bodies, and fragments generated from explosions, collisions, or faulty payload assembly.

Loading next visibility...
Identifier
4743, 1970-025CS
Orbit
SSO
Country
Flag of USUS
Related business
Manufacturer
Unknown
Mission
Spacecraft
Bus & Motor
Unknown
Mass
Unknown
Launch date (UTC)
1970-04-08 (56 years ago)
Launch vehicle
Unknown
Launch site
Air Force Western Test Range (AFWTR)
Object type
Payload
Rocket body
Debris
Shape & HBR
Unknown shape, 0.1 m
Radar Cross Section
Medium (>0.1 m² and <1 m²)

Expand to show TLE details & history
Last TLE update: 15 hours ago

TLE from 15 hours ago
0 THORAD AGENA D DEB
1 04743U 70025CS  25292.25045748  .00000487  00000-0  73209-3 0  9990
2 04743  99.9239   4.4648 0036266 192.8727 240.6944 13.58248849740345
Epoch: 2025-10-19T06:00Z
TLE epoch observation values (Epoch: 2025-10-19T06:00:39.526Z)
Latitude
70.64055°
Longitude
-143.36482°
Altitude
1,067.432 km
Speed
7.318 km/s
True Right ascension
22h 19m 04s
True Declination
70° 32' 14"
Sunlit
Object was in daylight at epoch
Visualization orbit readout
Latitude
Unknown
Longitude
Unknown
Altitude
Unknown
Speed
Unknown
Apparent Right ascension
Unknown
Apparent Declination
Unknown
Sunlit
N/A
Visualization observer readout
Local Sidereal Time
15:35:34
Azimuth
Unknown
Elevation
Unknown
Doppler factor
Unknown
Orbital elements
Apogee altitude
1,066.265 km
Perigee altitude
1,012.465 km
Semi-major axis
7,417.502 km
Eccentricity
0.00363
Inclination
99.9239°
RAAN
4.4648°
Arg. of periapsis
192.8727°
True anomaly
240.33281°
Mean anomaly
240.6944°
Eccentric anomaly
240.51353°
Mean motion
3.39748 °/min
Orbital period
105.96 mins
BSTAR
0.00073209
Loading maneuver chart data...
Computing Atmospheric mass density...

Documentation

Showing up to 5 results
|